Weather in Krasnoyarskiy

Russia / Orenburg Oblast     51°58′02″N   59°54′01″E
temp.,
°C
wind,
m/s
gust,
m/s
humid.,
%
clouds,
%
prec.,
mm/h
press.,
hPa
HPBL,
m
28 february, sun
sun2823:00−7s51095100 0.8 1008319
02:00−6s3696100 0.6 1006236
05:00−4sse4797100 1.1 1005207
08:00−2sse4798100 2.0 1003233
11:000sw58100100 4.5 1002493
14:00−1w4697100 0.4 1003330
17:00−3wnw2397100 1.0 1003233
20:00−5ne2397100 0.9 100594
1 march, mon
mon123:00−10nne349698 1.1 100866
02:00−13n339695 0.1 101027
05:00−15nnw229791 0.1 101220
08:00−15n119788 0.1 101420
11:00−13wnw119383 0.1 1016127
14:00−11wsw239195 0.0 1017314
17:00−11wsw349598 0.1 1017174
20:00−13sw359695 0.1 1018113
2 march, tue
tue223:00−14wsw489788 0.2 1019157
02:00−17wsw479897 0.0 1018112
05:00−16wsw6109693 0.1 1018240
08:00−19wsw6119789 0.0 1018209
11:00−18wsw7119578 0.0 1018270
14:00−16wsw7119371 0.0 1017336
17:00−16wsw8139170 0.0 1016364
20:00−16sw7149399 0.0 1015335
3 march, wed
wed323:00−14sw8159399 0.1 1014466
02:00−11sw81593100 0.3 1011525
05:00−7sw91594100 0.8 1009648
08:00−5sw81495100 0.7 1007749
11:00−3sw91495100 1.5 1007858
14:00−2sw81295100 0.8 1006892
17:00−2sw71296100 1.6 1006836
20:00−3sw51197100 0.4 1005427
4 march, thu
thu423:00−3sw51097100 0.8 1005381
02:00−3sw4897100 0.6 1003279
05:00−3wsw3697100 1.5 1003238
08:00−6wnw3597100 0.5 1004123
11:00−7nw5990100 0.6 1005382
14:00−7nw588515 0.0 1007516
17:00−8w47887 0.0 1010174
20:00−11wsw510910 0.0 1012176